Main page
METAR-TAF:

METAR-TAF

Airports :

Richland Airport

Richland, Washington, United States

latitude: 46-18-20N, longitude: 119-18-15W, elevation: 394 ft

Current weather observation

The report was made 30 minutes ago, at 20:15 UTC
Wind 6 mph from the North/Northeast
Temperature 81°F
Humidity 30%
Pressure 29.98 in. Hg
Visibility: 10 miles
Clear sky

METAR: KRLD 192015Z AUTO 02005KT 10SM CLR 27/08 A2998 RMK AO2 T02670080

Time: 13:45 (20:45 UTC)


TAF: missing

Weather observations and forecasts of more than 4000 airports (METAR and TAF reports).

The available stations are represented by yellow and red dots on the map.

Hover mouse over dot to see the name of the station.

Then click to see weather observations and forecasts.

To change the map : click on the green buttons with a black cross to zoom in, on the green button with a dash to zoom out, or on the green arrows for adjacent maps.


METAR-TAF: